Location: Mountain View
(37.3861°N, 122.0839°W)
Time: 00:35:46
(UTC-08:00)

ISS - Visible Passes

Search period start: 19 February 2019 00:00
Search period end: 01 March 2019 00:00
Orbit: 403 x 411 km, 51.6° (Epoch: 19 February)

Date Brightness Start Highest point End Pass type
(mag) Time Alt. Az. Time Alt. Az. Time Alt. Az.
20 Feb -0.8 06:11:09 10° S 06:13:20 17° SE 06:15:31 10° E visible
22 Feb -2.7 06:03:31 10° SSW 06:06:40 46° SE 06:09:48 10° ENE visible
23 Feb -1.5 05:13:02 12° S 05:15:17 23° SE 05:17:55 10° ENE visible
24 Feb -0.6 04:24:26 11° ESE 04:24:26 11° ESE 04:25:07 10° ESE visible
24 Feb -3.8 05:57:11 12° WSW 06:00:06 60° NW 06:03:21 10° NE visible
25 Feb -3.7 05:08:19 61° S 05:08:35 65° SE 05:11:50 10° NE visible
26 Feb -0.7 04:19:16 15° ENE 04:19:16 15° ENE 04:20:04 10° ENE visible
26 Feb -2.5 05:51:59 17° WNW 05:53:40 26° NNW 05:56:28 10° NNE visible
27 Feb -2.8 05:02:47 36° N 05:02:47 36° N 05:05:09 10° NE visible
28 Feb -0.5 04:13:27 12° NE 04:13:27 12° NE 04:13:42 10° NE visible
28 Feb -1.7 05:46:10 13° NW 05:47:20 15° NNW 05:49:16 10° NNE visible
